Time,TemperatureF,DewpointF,PressureIn,WindDirection,WindDirectionDegrees,WindSpeedMPH,WindSpeedGustMPH,Humidity,HourlyPrecipIn,Conditions,Clouds,dailyrainin,SoftwareType,DateUTC
2013-06-15 00:11:00,82.0,10.0,-100.00,North,-999,-999.0,-999.0,6,-99.99,,,-99.99,,2013-06-15 07:11:00,
2013-06-15 00:23:00,82.0,10.0,-100.00,North,-999,-999.0,-999.0,6,-99.99,,,-99.99,,2013-06-15 07:23:00,
2013-06-15 00:33:00,82.0,10.0,-100.00,North,-999,-999.0,-999.0,6,-99.99,,,-99.99,,2013-06-15 07:33:00,
2013-06-15 01:11:00,77.0,14.0,-100.00,North,-999,-999.0,-999.0,9,-99.99,,,-99.99,,2013-06-15 08:11:00,
2013-06-15 01:22:00,77.0,14.0,-100.00,North,-999,-999.0,-999.0,9,-99.99,,,-99.99,,2013-06-15 08:22:00,
2013-06-15 01:33:00,77.0,14.0,-100.00,North,-999,-999.0,-999.0,9,-99.99,,,-99.99,,2013-06-15 08:33:00,
2013-06-15 01:42:00,77.0,14.0,-100.00,North,-999,-999.0,-999.0,9,-99.99,,,-99.99,,2013-06-15 08:42:00,
2013-06-15 03:01:00,77.0,10.0,-100.00,North,-999,-999.0,-999.0,7,-99.99,,,-99.99,,2013-06-15 10:01:00,
2013-06-15 03:02:00,74.0,-99.9,-100.00,North,-999,-999.0,-999.0,-999,-99.99,,,-99.99,,2013-06-15 10:02:00,
2013-06-15 03:12:00,74.0,-99.9,-100.00,North,-999,-999.0,-999.0,-999,-99.99,,,-99.99,,2013-06-15 10:12:00,
2013-06-15 03:23:00,74.0,-99.9,-100.00,North,-999,-999.0,-999.0,-999,-99.99,,,-99.99,,2013-06-15 10:23:00,
2013-06-15 03:33:00,77.0,10.0,-100.00,North,-999,-999.0,-999.0,7,-99.99,,,-99.99,,2013-06-15 10:33:00,
2013-06-15 03:44:00,77.0,10.0,-100.00,North,-999,-999.0,-999.0,7,-99.99,,,-99.99,,2013-06-15 10:44:00,
2013-06-15 03:53:00,77.0,10.0,-100.00,North,-999,-999.0,-999.0,7,-99.99,,,-99.99,,2013-06-15 10:53:00,
2013-06-15 04:43:00,74.0,15.0,-100.00,North,-999,-999.0,-999.0,10,-99.99,,,-99.99,,2013-06-15 11:43:00,
2013-06-15 04:53:00,74.0,15.0,-100.00,North,-999,-999.0,-999.0,10,-99.99,,,-99.99,,2013-06-15 11:53:00,
2013-06-15 05:01:00,74.0,15.0,-100.00,North,-999,-999.0,-999.0,10,-99.99,,,-99.99,,2013-06-15 12:01:00,
2013-06-15 05:11:00,74.0,15.0,-100.00,North,-999,-999.0,-999.0,10,-99.99,,,-99.99,,2013-06-15 12:11:00,
2013-06-15 07:12:00,77.0,-99.9,-100.00,North,-999,-999.0,-999.0,-999,-99.99,,,-99.99,,2013-06-15 14:12:00,
2013-06-15 07:23:00,77.0,-99.9,-100.00,North,-999,-999.0,-999.0,-999,-99.99,,,-99.99,,2013-06-15 14:23:00,
2013-06-15 08:43:00,86.0,-99.9,-100.00,North,-999,-999.0,-999.0,-999,-99.99,,,-99.99,,2013-06-15 15:43:00,
2013-06-15 08:53:00,86.0,-99.9,-100.00,North,-999,-999.0,-999.0,-999,-99.99,,,-99.99,,2013-06-15 15:53:00,
2013-06-15 09:02:00,86.0,-99.9,-100.00,North,-999,-999.0,-999.0,-999,-99.99,,,-99.99,,2013-06-15 16:02:00,
2013-06-15 09:12:00,86.0,-99.9,-100.00,North,-999,-999.0,-999.0,-999,-99.99,,,-99.99,,2013-06-15 16:12:00,
2013-06-15 11:01:00,89.0,19.0,-100.00,North,-999,-999.0,-999.0,7,-99.99,,,-99.99,,2013-06-15 18:01:00,
2013-06-15 11:11:00,89.0,19.0,-100.00,North,-999,-999.0,-999.0,7,-99.99,,,-99.99,,2013-06-15 18:11:00,
2013-06-15 11:22:00,89.0,19.0,-100.00,North,-999,-999.0,-999.0,7,-99.99,,,-99.99,,2013-06-15 18:22:00,
2013-06-15 12:12:00,95.0,-99.9,-100.00,North,-999,-999.0,-999.0,-999,-99.99,,,-99.99,,2013-06-15 19:12:00,
2013-06-15 12:22:00,95.0,-99.9,-100.00,North,-999,-999.0,-999.0,-999,-99.99,,,-99.99,,2013-06-15 19:22:00,
2013-06-15 12:32:00,95.0,8.0,-100.00,North,-999,-999.0,-999.0,3,-99.99,,,0.00,,2013-06-15 19:32:00,
2013-06-15 12:53:00,95.0,8.0,-100.00,North,-999,-999.0,-999.0,3,-99.99,,,0.00,,2013-06-15 19:53:00,
2013-06-15 13:02:00,95.0,8.0,-100.00,North,-999,-999.0,-999.0,3,-99.99,,,0.00,,2013-06-15 20:02:00,
2013-06-15 13:11:00,95.0,8.0,-100.00,North,-999,-999.0,-999.0,3,-99.99,,,0.00,,2013-06-15 20:11:00,
2013-06-15 19:53:00,91.0,-99.9,-100.00,North,-999,-999.0,-999.0,-999,-99.99,,,-99.99,,2013-06-16 02:53:00,
2013-06-15 20:02:00,91.0,-99.9,-100.00,North,-999,-999.0,-999.0,-999,-99.99,,,-99.99,,2013-06-16 03:02:00,
2013-06-15 21:12:00,88.0,-99.9,-100.00,North,-999,-999.0,-999.0,-999,-99.99,,,-99.99,,2013-06-16 04:12:00,
2013-06-15 21:23:00,88.0,-99.9,-100.00,North,-999,-999.0,-999.0,-999,-99.99,,,-99.99,,2013-06-16 04:23:00,
2013-06-15 21:34:00,88.0,-99.9,-100.00,North,-999,-999.0,-999.0,-999,-99.99,,,-99.99,,2013-06-16 04:34:00,
2013-06-15 21:43:00,88.0,-99.9,-100.00,North,-999,-999.0,-999.0,-999,-99.99,,,-99.99,,2013-06-16 04:43:00,
2013-06-15 22:43:00,83.0,12.0,-100.00,North,-999,-999.0,-999.0,6,-99.99,,,-99.99,,2013-06-16 05:43:00,
2013-06-15 22:52:00,83.0,12.0,-100.00,North,-999,-999.0,-999.0,6,-99.99,,,-99.99,,2013-06-16 05:52:00,
2013-06-15 23:01:00,83.0,12.0,-100.00,North,-999,-999.0,-999.0,6,-99.99,,,-99.99,,2013-06-16 06:01:00,
2013-06-15 23:12:00,80.0,-99.9,-100.00,North,-999,-999.0,-999.0,-999,-99.99,,,-99.99,,2013-06-16 06:12:00,
2013-06-15 23:23:00,80.0,-99.9,-100.00,North,-999,-999.0,-999.0,-999,-99.99,,,-99.99,,2013-06-16 06:23:00,